Preview of NWS' New Version of Forecast
This preview is not operational and should not be used for support decisions.

Regional Weather Roundup (RWR)

Issued by National Weather Service (NWS)

                            
000
ASPQ40 PGUM 191010
RWRPQ 
WEATHER ROUNDUP FOR THE MARIANAS AND MICRONESIA
NATIONAL WEATHER SERVICE TIYAN GU
800 PM CHST FRI APR 19 2019

GUZ001>004-191100-
MARIANA ISLANDS-
  
CITY           SKY/WX    TMP DP  RH WIND       PRES   REMARKS
GUAM AIRPORT   CLEAR     81  72  74 NE8       29.88R                  
ANDERSEN AFB   MOCLDY    79  72  78 NE9       29.89R                  
ROTA AIRPORT   MOCLDY    79  68  69 NE8       29.87R                  
TINIAN AP      MOCLDY    79  72  78 E16       29.87R                  
SAIPAN AP      CLOUDY    79  73  83 E9        29.88R                  

$$

PMZ161-191100-
REPUBLIC OF PALAU-
  
CITY           SKY/WX    TMP DP  RH WIND       PRES   REMARKS
KOROR AP       MOCLDY    79  77  94 NE5       29.78R                  
KOROR WSO      NOT AVBL                                               

$$

PMZ171>174-191100-
FEDERATED STATES OF MICRONESIA-
  
CITY           SKY/WX    TMP DP  RH WIND       PRES   REMARKS
YAP AIRPORT    PTCLDY    82  75  78 VRB3      29.82R                  
CHUUK AP       MOCLDY    82  77  83 VRB6      29.81R HX  91           
POHNPEI AP     NOT AVBL                                               
POHNPEI WSO    NOT AVBL                                               
KOSRAE AP      NOT AVBL                                               

$$

PMZ181-191100-
REPUBLIC OF THE MARSHALL ISLANDS-
  
CITY           SKY/WX    TMP DP  RH WIND       PRES   REMARKS
KWAJALEIN AP   CLEAR     81  72  74 E13       29.86S                  
MAJURO AP      MOCLDY    82  77  83 NE16      29.84S HX  91           
MAJURO WSO     MOCLDY    82  75  78 E8        29.83R                  

$$